Flag for Canada Weather past 2 weeks in Peterborough, Ontario, Canada

Now
32 °F

Clear.


Feels Like: 24 °F
Forecast: 23 / 38 °F
Wind: 9 mph from West

Location: Peterborough Airport

Current Time: Mar 31, 2015 at 12:19:03 AM

Latest Report: Mar 30, 2015 at 11:00 PM


Visibility: 9 mi

Pressure: 29.86 "Hg

Humidity: 87%

Dew point: 28 °F

Location of PeterboroughLocation

Historic Weather in Peterborough — Graph

°F

Peterborough temperature yesterday

Maximum temperature yesterday: 41 °F (at 1:00 PM)
Minimum temperature yesterday: 34 °F (at 12:00 AM)
Average temperature yesterday: 37 °F

Past Weeks' High & Low Weather Summary

 TemperatureHumidityPressure
High45 °F (Mar 16, 4:00 PM)100% (Mar 16, 12:00 AM)30.43 "Hg (Mar 16, 12:00 AM)
Low3 °F (Mar 23, 7:00 AM)21% (Mar 19, 4:00 PM)29.53 "Hg (Mar 30, 6:00 AM)
Average28 °F72%30.05 "Hg
* Reported Mar 15 10:00 PM — Mar 30 10:00 PM, Peterborough, Weather by CustomWeather, © 2015

Note: Actual official high and low records may vary slightly from our data, if they occured in-between our weather recording intervals... More about our weather records

Advertising

Peterborough weather history for previous 24 hours

 ConditionsComfort  
Time TempWeatherWind HumidityBarometerVisibility
10:00 PM
Mon, Mar 30
34 °FClear.10 mph81%29.85 "Hg9 mi
9:00 PM36 °FOvercast.14 mph75%29.83 "Hg9 mi
8:00 PM36 °FOvercast.15 mph75%29.81 "Hg9 mi
7:00 PM37 °FPartly sunny.18 mph70%29.79 "Hg9 mi
6:00 PM39 °FPartly sunny.18 mph65%29.76 "Hg9 mi
5:00 PM41 °FScattered clouds.21 mph57%29.73 "Hg9 mi
4:00 PM41 °FSunny.23 mph61%29.73 "Hg9 mi
3:00 PM41 °FMostly cloudy.28 mph57%29.72 "Hg9 mi
2:00 PM41 °FPartly sunny.25 mph61%29.71 "Hg9 mi
1:00 PM41 °FMore clouds than sun.20 mph66%29.69 "Hg9 mi
12:01 PM39 °FLight rain. Mostly cloudy.26 mph70%29.67 "Hg9 mi
11:00 AM37 °FMostly cloudy.22 mph75%29.65 "Hg9 mi
10:00 AM37 °FCloudy.26 mph75%29.61 "Hg9 mi
9:02 AM36 °FLight rain. Overcast.25 mph87%29.60 "Hg9 mi
8:00 AM36 °FMostly cloudy.16 mph87%29.57 "Hg9 mi
7:02 AM37 °FLight rain. Mostly cloudy.14 mph87%29.55 "Hg9 mi
6:00 AM36 °FLight rain. Mostly cloudy.9 mph100%29.53 "Hg9 mi
5:00 AM36 °FLight rain. Fog.12 mph93%29.54 "Hg4 mi
4:54 AM36 °FLight rain. Fog.13 mph93%29.54 "Hg5 mi
4:00 AM34 °FLight snow. Mostly cloudy.8 mph93%29.58 "Hg3 mi
3:04 AM34 °FLight snow. Mostly cloudy.16 mph93%29.62 "Hg4 mi
2:00 AM34 °FLight rain. Mostly cloudy.17 mph81%29.67 "Hg9 mi
1:51 AM34 °FLight rain. Mostly cloudy.14 mph87%29.68 "Hg9 mi
1:00 AM34 °FLight rain. Overcast.13 mph87%29.72 "Hg9 mi
12:00 AM34 °FLight rain. Mostly cloudy.14 mph93%29.78 "Hg9 mi
Weather by CustomWeather, © 2015

See weather overviewHow to use our weather pages